Regional Weather Roundup
Issued by NWS

Home | Current Version | Previous Version | Graphics & Text | Print | Product List | Glossary On
Versions: 1 2 3 4 5 6 7 8 9 10 11 12 13 14 15 16 17 18 19 20 21 22 23 24 25 26 27 28 29 30 31 32 33 34 35 36 37 38 39 40 41 42 43 44 45 46 47 48 49 50
000
ASUS43 KBIS 220110
RWRND

NORTH DAKOTA REGIONAL WEATHER ROUNDUP
NATIONAL WEATHER SERVICE BISMARCK ND
800 PM CDT MON JUL 21 2014

NOTE: "FAIR" INDICATES FEW OR NO CLOUDS BELOW 12,000 FEET WITH NO
SIGNIFICANT WEATHER AND/OR OBSTRUCTIONS TO VISIBILITY.


NDZ001>003-009>011-017-220200-
NORTHWEST NORTH DAKOTA

CITY           SKY/WX    TMP DP  RH WIND       PRES   REMARKS
WILLISTON      CLOUDY    77  59  53 NE10      29.91R
MINOT          CLOUDY    68  65  90 N9        29.85R
MINOT AFB      CLOUDY    67  67  99 N14       29.85S
$$

NDZ018>021-031>035-040>046-220200-
SOUTHWEST NORTH DAKOTA

CITY           SKY/WX    TMP DP  RH WIND       PRES   REMARKS
BISMARCK       LGT RAIN  67  63  87 NE7       29.79R
DICKINSON      CLOUDY    70  63  78 N23G31    29.91R
GARRISON         N/A     65  63  93 N8        29.85R
HETTINGER ARPT SUNNY     74  64  71 NW16      29.91R
$$

NDZ004>008-012>016-024-026-027-054-220200-
NORTHEAST NORTH DAKOTA

CITY           SKY/WX    TMP DP  RH WIND       PRES   REMARKS
GRAND FORKS    TSTM      70  68  94 NW48G69   29.63R VSB 1/4
GRND FRKS AFB  TSTM      68  68 100 N29G43    29.65R VSB 1
DEVILS LAKE    CLOUDY    64  61  88 N20G30    29.77F THUNDER
$$

NDZ022-023-025-028>030-036>039-047>053-220200-
SOUTHEAST NORTH DAKOTA

CITY           SKY/WX    TMP DP  RH WIND       PRES   REMARKS
FARGO          CLOUDY    86  76  71 SE15      29.64F HX  96
JAMESTOWN      TSTM      69  65  86 W26G40    29.79R
$$




USA.gov is the U.S. government's official web portal to all federal, state and local government web resources and services.